Location: Newark
(40.7636°N, 73.9728°W)
Time: 06:02:21
(UTC+00:00)

ISS - Pass Details

Date: 26 September 2019
Orbit: 411 x 421 km, 51.6° (Epoch: 16 October)

Event Time Altitude Azimuth Distance (km) Brightness Sun altitude
Rises 00:47:24 0° 294° (WNW) 2,343 1.5 -23.0°
Reaches altitude 10° 00:50:22 10° 323° (NW) 1,481 -0.2 -23.5°
Maximum altitude 00:52:03 13° 354° (N) 1,299 -1.0 -23.8°
Enters shadow 00:52:25 13° 1° (N) 1,307 -1.1 -23.9°
